DW0051 Weather Reports


time (UTC)temp
F
wind
direction
speed
knots
gust
knots
rain 1hr
in
rain 24hr
in
rain mn
in
humidity
%
barometer
mb
20260507065537 60 182 1.7 9.6 0.00 0.00 0.00 65 1013.1
20260507064538 59 197 1.7 9.6 0.00 0.00 0.00 67 1013.1
20260507063517 58 212 0.9 7.0 0.00 0.00 0.00 68 1013.1
20260507062537 58 183 1.7 6.1 0.00 0.00 0.00 69 1013.1
20260507061517 57 0.0 9.6 0.00 0.00 0.00 69 1012.9
20260507060517 57 262 1.7 6.1 0.00 0.00 0.00 69 1012.9
20260507055517 57 0.0 0.0 0.00 0.00 0.00 69 1012.9
20260507054518 57 247 0.0 4.3 0.00 0.00 0.00 69 1012.7
20260507053517 57 0.0 5.2 0.00 0.00 0.00 69 1012.5
20260507052517 57 0.0 2.6 0.00 0.00 0.00 70 1012.5
20260507051517 57 0.0 0.0 0.00 0.00 0.00 71 1012.4
20260507050517 57 178 0.0 6.1 0.00 0.00 0.00 70 1012.2
20260507045517 56 164 1.7 6.1 0.00 0.00 0.00 71 1012.1
20260507044518 56 228 1.7 6.1 0.00 0.00 0.00 71 1011.9
20260507043517 56 0.0 4.3 0.00 0.00 0.00 71 1011.9
20260507042517 56 204 2.6 4.3 0.00 0.00 0.00 71 1011.9
20260507041517 56 0.0 6.1 0.00 0.00 0.00 71 1011.7
20260507040517 56 0.0 4.3 0.00 0.00 0.00 71 1011.6
20260507035516 56 210 4.3 7.8 0.00 0.00 0.00 71 1011.5
20260507034516 56 231 1.7 7.0 0.00 0.00 0.00 71 1011.5
20260507033537 56 222 0.9 7.8 0.00 0.00 0.00 71 1011.5
20260507032517 57 0.0 3.5 0.00 0.00 0.00 71 1011.4
20260507031517 57 185 1.7 4.3 0.00 0.00 0.00 70 1011.5
20260507030516 57 216 0.0 6.1 0.00 0.00 0.00 69 1011.5
20260507025517 57 220 1.7 3.5 0.00 0.00 0.00 69 1011.3
20260507024517 57 205 0.0 1.7 0.00 0.00 0.00 69 1011.3
20260507023517 57 177 0.0 3.5 0.00 0.00 0.00 69 1011.2
20260507022517 57 0.0 4.3 0.00 0.00 0.00 70 1011.1
20260507021517 57 240 0.0 2.6 0.00 0.00 0.00 70 1011.2
20260507020516 58 0.0 3.5 0.00 0.00 0.00 70 1011.1
20260507015516 58 0.0 0.0 0.00 0.00 0.00 71 1010.9
20260507014517 58 256 0.0 0.9 0.00 0.00 0.00 71 1010.8
20260507013516 58 253 0.0 5.2 0.00 0.00 0.00 71 1010.8
20260507012516 58 0.0 6.1 0.00 0.00 0.00 72 1010.6
20260507011516 58 216 0.9 5.2 0.00 0.00 0.00 72 1010.7
20260507010517 58 0.0 9.6 0.00 0.00 0.00 73 1010.3
20260507005516 58 0.0 4.3 0.00 0.00 0.00 73 1010.2
20260507004516 58 188 1.7 7.8 0.00 0.00 0.00 73 1010.2
20260507003537 59 0.0 3.5 0.00 0.00 0.00 73 1010.2
20260507002517 59 196 0.9 7.8 0.00 0.00 0.00 72 1010.2
20260507001517 59 219 1.7 8.7 0.00 0.00 0.00 72 1010.2
20260507000537 59 0.0 7.8 0.00 0.00 0.00 71 1010.2
20260506235518 59 227 0.9 6.1 0.00 0.00 0.00 71 1010.1
20260506234516 60 168 2.6 7.8 0.00 0.00 0.00 72 1009.9
20260506233517 60 218 0.9 13.9 0.00 0.00 0.00 72 1009.7
20260506232537 60 230 4.3 11.3 0.00 0.00 0.00 72 1009.7
20260506231516 60 209 2.6 7.8 0.00 0.00 0.00 72 1009.6
20260506230517 61 195 2.6 7.8 0.00 0.00 0.00 73 1009.3
20260506225516 61 201 6.1 13.0 0.00 0.00 0.00 75 1009.1
20260506224517 61 234 3.5 7.8 0.00 0.00 0.00 75 1009.0
20260506223516 61 187 1.7 5.2 0.00 0.00 0.00 75 1008.9
20260506222516 61 188 2.6 7.8 0.00 0.00 0.00 73 1008.8
20260506221516 62 226 2.6 10.4 0.00 0.00 0.00 71 1008.6
20260506220516 62 203 5.2 10.4 0.00 0.00 0.00 69 1008.3
20260506215536 63 233 3.5 9.6 0.00 0.00 0.00 68 1007.9
20260506214516 63 219 1.7 8.7 0.00 0.00 0.00 67 1007.5
20260506213517 63 210 5.2 9.6 0.00 0.00 0.00 67 1007.4
20260506212537 63 221 3.5 6.1 0.00 0.00 0.00 68 1007.1
20260506211517 60 233 2.6 7.8 0.00 0.00 0.00 70 1007.0
20260506210516 60 273 0.0 3.5 0.00 0.00 0.00 73 1006.5
20260506205536 60 0.0 0.0 0.00 0.00 0.00 72 1006.2
20260506204516 61 0.0 0.0 0.00 0.00 0.00 71 1006.1
20260506203517 61 0.0 0.0 0.00 0.00 0.00 70 1005.8
20260506202517 61 0.0 0.0 0.00 0.00 0.00 69 1005.7
20260506201516 62 0.0 0.0 0.00 0.00 0.00 69 1005.6
20260506200516 62 0.0 0.0 0.00 0.00 0.00 68 1005.6
20260506195516 63 0.0 0.0 0.00 0.00 0.00 67 1005.4
20260506194516 63 0.0 0.0 0.00 0.00 0.00 66 1005.2
20260506193516 64 0.0 0.0 0.00 0.00 0.00 64 1005.0
20260506192536 65 0.0 2.6 0.00 0.00 0.00 63 1005.0
20260506191557 66 0.0 0.0 0.00 0.00 0.00 62 1004.8
20260506190516 66 0.0 0.0 0.00 0.00 0.00 60 1004.7
20260506185517 67 0.0 0.0 0.00 0.00 0.00 58 1004.6
20260506184516 69 0.0 0.0 0.00 0.00 0.00 55 1004.4
20260506183517 70 0.0 0.0 0.00 0.00 0.00 53 1004.2
20260506182516 70 243 2.6 5.2 0.00 0.00 0.00 51 1004.2
20260506181538 71 222 0.0 3.5 0.00 0.00 0.00 50 1004.2
20260506180517 71 206 0.0 4.3 0.00 0.00 0.00 50 1004.2
20260506175516 71 217 0.9 5.2 0.00 0.00 0.00 50 1004.0
20260506174537 72 222 0.0 1.7 0.00 0.00 0.00 50 1004.0
20260506173516 72 0.0 5.2 0.00 0.00 0.00 49 1004.1
20260506172537 73 0.0 2.6 0.00 0.00 0.00 48 1004.0
20260506171517 73 0.0 2.6 0.00 0.00 0.00 47 1004.0
20260506170517 73 217 4.3 7.0 0.00 0.00 0.00 47 1004.1
20260506165516 73 212 2.6 11.3 0.00 0.00 0.00 46 1004.1
20260506164517 74 215 0.0 5.2 0.00 0.00 0.00 47 1004.2
20260506163517 74 57 0.0 3.5 0.00 0.00 0.00 47 1004.2
20260506162517 74 212 0.9 3.5 0.00 0.00 0.00 47 1004.2
20260506161517 75 210 3.5 8.7 0.00 0.00 0.00 46 1004.3
20260506160557 76 137 1.7 8.7 0.00 0.00 0.00 45 1004.4
20260506155537 77 244 2.6 8.7 0.00 0.00 0.00 41 1004.3
20260506154517 79 214 0.9 3.5 0.00 0.00 0.00 37 1004.2
20260506153516 79 214 0.9 3.5 0.00 0.00 0.00 37 1004.2
20260506152517 80 169 0.0 1.7 0.00 0.00 0.00 35 1004.2
20260506151516 80 201 2.6 7.8 0.00 0.00 0.00 35 1004.3
20260506150516 80 0.0 0.0 0.00 0.00 0.00 37 1004.3
20260506145517 80 222 0.9 3.5 0.00 0.00 0.00 36 1004.5
20260506144517 81 234 1.7 4.3 0.00 0.00 0.00 34 1004.3
20260506143516 81 0.0 5.2 0.00 0.00 0.00 35 1004.4
20260506142516 81 204 0.9 7.8 0.00 0.00 0.00 34 1004.4
20260506141516 82 207 2.6 7.8 0.00 0.00 0.00 32 1004.4
20260506140516 82 0.0 5.2 0.00 0.00 0.00 31 1004.4
20260506135516 82 188 2.6 7.8 0.00 0.00 0.00 33 1004.5
20260506134516 82 231 0.9 8.7 0.00 0.00 0.00 34 1004.6
20260506133517 81 217 0.9 4.3 0.00 0.00 0.00 36 1004.7
20260506132516 80 232 0.0 9.6 0.00 0.00 0.00 36 1004.8
20260506131516 81 0.0 16.5 0.00 0.00 0.00 35 1004.9
20260506130516 82 0.0 10.4 0.00 0.00 0.00 37 1005.0
20260506125516 80 61 0.0 10.4 0.00 0.00 0.00 39 1005.2
20260506124516 79 188 1.7 7.8 0.00 0.00 0.00 41 1005.2
20260506123516 79 121 0.9 8.7 0.00 0.00 0.00 39 1005.5
20260506122517 79 74 1.7 9.6 0.00 0.00 0.00 39 1005.5
20260506121516 80 151 7.8 14.8 0.00 0.00 0.00 38 1005.7
20260506120516 77 53 1.7 8.7 0.00 0.00 0.00 40 1005.8
20260506115516 77 0.0 10.4 0.00 0.00 0.00 42 1006.0
20260506114536 78 138 0.0 8.7 0.00 0.00 0.00 42 1006.1
20260506113516 79 77 1.7 5.2 0.00 0.00 0.00 41 1006.2
20260506112516 76 157 2.6 8.7 0.00 0.00 0.00 44 1006.4
20260506111517 77 32 4.3 15.6 0.00 0.00 0.00 43 1006.5
20260506110516 77 67 0.9 7.8 0.00 0.00 0.00 45 1006.6
20260506105516 76 54 1.7 11.3 0.00 0.00 0.00 45 1006.8
20260506104516 77 73 5.2 11.3 0.00 0.00 0.00 45 1007.1
20260506103516 76 60 6.1 13.0 0.00 0.00 0.00 47 1006.9
20260506102515 76 45 1.7 7.0 0.00 0.00 0.00 47 1007.2
20260506101535 76 57 5.2 10.4 0.00 0.00 0.00 47 1007.3
20260506100515 76 44 4.3 10.4 0.00 0.00 0.00 46 1007.4
20260506095537 75 108 3.5 7.8 0.00 0.00 0.00 46 1007.6
20260506094515 76 133 2.6 7.0 0.00 0.00 0.00 46 1007.9
20260506093515 77 102 1.7 12.2 0.00 0.00 0.00 43 1007.8
20260506092556 75 324 0.0 6.1 0.00 0.00 0.00 46 1008.0
20260506091535 74 245 0.9 13.0 0.00 0.00 0.00 45 1008.1
20260506090515 75 116 0.9 6.1 0.00 0.00 0.00 46 1008.2
20260506085516 75 164 2.6 6.1 0.00 0.00 0.00 45 1008.2
20260506084516 75 0.0 6.1 0.00 0.00 0.00 45 1008.1
20260506083515 75 124 2.6 6.1 0.00 0.00 0.00 45 1008.3
20260506082536 76 103 0.9 7.8 0.00 0.00 0.00 43 1008.2
20260506081515 77 59 0.0 4.3 0.00 0.00 0.00 44 1008.3
20260506080515 76 92 0.0 3.5 0.00 0.00 0.00 45 1008.3
20260506073518 74 298 0.0 0.9 0.00 0.00 0.00 53 1008.6
20260506072518 73 0.0 0.0 0.00 0.00 0.00 50 1008.9
20260506071518 74 0.0 0.0 0.00 0.00 0.00 50 1009.0
20260506070518 73 0.0 0.0 0.00 0.00 0.00 53 1009.1